Location: Home
(42.5358°N, 72.7383°W)
Time: 17:56:44
(UTC-05:00)

Tiros 1 - Pass Details

Date: 07 December 2021
Orbit: 629 x 664 km, 48.4° (Epoch: 18 January)

Event Time Altitude Azimuth Distance (km) Brightness Sun altitude
Rises 21:38:33 0° 295° (WNW) 2,942 - -57.5°
Reaches altitude 10° 21:40:53 10° 298° (WNW) 2,036 - -57.9°
Maximum altitude 21:45:34 70° 22° (NNE) 689 - -58.6°
Drops below altitude 10° 21:50:17 10° 107° (ESE) 2,053 - -59.4°
Sets 21:52:39 0° 110° (ESE) 2,967 - -59.8°
